Terminal Aerodrome Forecast
Issued by NWS Billings, MT

Home | Current Version | Previous Version | Text Only | Print | Product List | Glossary On
Versions: 1 2 3 4 5 6 7 8 9 10 11 12 13 14 15 16 17 18 19 20 21 22 23 24 25 26
000
FTUS45 KBYZ 042322
TAFBIL
TAF
KBIL 042322Z 0500/0524 28011KT P6SM FEW100 SCT200
     FM050800 36013G24KT P6SM FEW050 BKN090
     FM051400 03011KT P6SM -SHRA SCT025 BKN050=

USA.gov is the U.S. government's official web portal to all federal, state and local government web resources and services.